Location: Newark
(47.5833°N, 8.1500°E)
Time: 08:44:45
(UTC+00:00)

Vanguard 1 - Pass Details

Date: 29 October 2020
Orbit: 650 x 3833 km, 34.2° (Epoch: 29 November)

Event Time Altitude Azimuth Distance (km) Brightness Sun altitude
Rises 11:57:51 0° 231° (SW) 7,339 15.3 27.8°
Reaches altitude 10° 12:02:42 10° 226° (SW) 6,579 15.3 27.6°
Maximum altitude 12:23:52 49° 161° (SSE) 4,455 14.4 26.6°
Drops below altitude 10° 12:42:40 10° 95° (E) 5,936 13.9 25.4°
Sets 12:46:44 0° 90° (E) 6,612 14.1 25.1°
